Regional Weather Roundup
Issued by NWS

Home | Current Version | Previous Version | Graphics & Text | Print | Product List | Glossary On
Versions: 1 2 3 4 5 6 7 8 9 10 11 12 13 14 15 16 17 18 19 20 21 22 23 24 25 26 27 28 29 30 31 32 33 34 35 36 37 38 39 40 41 42 43 44 45 46 47 48 49 50
000
ASUS43 KDMX 242303
RWRIA

WEATHER ROUNDUP FOR IOWA
NATIONAL WEATHER SERVICE DES MOINES IA
600 PM CDT WED AUG 24 2016

NOTE: "FAIR" INDICATES FEW OR NO CLOUDS BELOW 12,000 FEET WITH NO
SIGNIFICANT WEATHER AND/OR OBSTRUCTIONS TO VISIBILITY.

* - THESE STATIONS ARE NOT NWS STATIONS...THUS NOT UNDER NWS
QUALITY CONTROL.  THEY ALSO DO NOT REPORT WEATHER SUCH
AS PRECIPITATION OR FOG.

IAZ001>003-012>014-020>022-031>034-043>046-250000-
   NORTHWEST IOWA

CITY           SKY/WX    TMP DP  RH WIND       PRES   REMARKS
CARROLL *      CLOUDY    73  64  73 NW6       30.03S
CHEROKEE *     CLOUDY    73  62  70 NW3       30.05R
DENISON *      CLOUDY    73  64  73 NW5       30.03S HAZE
LE MARS *      CLOUDY    72  63  73 W6        30.06F
ORANGE CITY *  CLOUDY    70  64  83 W3        30.06F
SHELDON *      CLOUDY    72  63  73 VRB3      30.04S
SIOUX CITY     CLOUDY    71  63  75 W3        30.06S
SPENCER        CLOUDY    73  62  68 W8        30.04S
STORM LAKE *   CLOUDY    72  64  78 MISG      30.05S
$$

IAZ055>058-069>071-079>083-090>094-250000-
   SOUTHWEST IOWA

CITY           SKY/WX    TMP DP  RH WIND       PRES   REMARKS
ATLANTIC *     PTSUNNY   72  64  78 N15       29.99F
AUDUBON *      PTSUNNY   73  64  73 CALM      30.05S
CLARINDA *       N/A     75  70  83 MISG      30.02F
COUNCIL BLFS * CLOUDY    72  64  78 N6        30.04R
CRESTON *      CLOUDY    70  66  88 N6        30.02F
HARLAN  *      CLOUDY    72  64  78 N7        30.07F
LAMONI         CLOUDY    79  73  82 W8        30.01R HX  82
RED OAK *      CLOUDY    72  68  88 N6        30.00F
SHENANDOAH *   CLOUDY    73 -35   1 N3        30.01S
$$

IAZ047>049-059>061-072>074-084-250000-
   CENTRAL IOWA

CITY           SKY/WX    TMP DP  RH WIND       PRES   REMARKS
AMES           CLOUDY    78  74  87 NW7       29.98S HX  81
ANKENY *         N/A    N/A N/A N/A MISG        N/A
BOONE *        CLOUDY    75  70  83 N10       29.99S
CHARITON *       N/A     79  73  83 MISG      29.98S HX  82
DES MOINES     TSTM      77  73  87 S3        29.98R FOG
GRINNELL*      CLOUDY    77  71  81 N5        29.97F
KNOXVILLE *    CLOUDY    79  72  78 CALM      29.95F HX  82
MARSHALLTOWN   CLOUDY    76  73  91 N7        29.96F
NEWTON *       CLOUDY    77  73  88 N7        29.96F
PERRY *          N/A     74  70  86 NW5       30.01R
$$

IAZ004>006-015-016-023>025-035-036-250000-
   NORTH CENTRAL IOWA

CITY           SKY/WX    TMP DP  RH WIND       PRES   REMARKS
ALGONA *       CLOUDY    75  63  64 NW8       30.03R
ESTHERVILLE    CLOUDY    71  64  78 W7        30.03S
FORT DODGE *   CLOUDY    75  63  64 N5        30.03R
MASON CITY     MOSUNNY   76  65  68 NW8       30.02R
FOREST CITY *    N/A    N/A N/A N/A MISG        N/A
WEBSTER CITY * CLOUDY    75  70  83 NW5       29.99F
IOWA FALLS *   PTSUNNY   76  71  84 NW7       30.01S
$$

IAZ007>011-017>019-026>030-037>042-050>054-066-250000-
   NORTHEAST IOWA

CITY           SKY/WX    TMP DP  RH WIND       PRES   REMARKS
CEDAR RAPIDS   CLOUDY    79  74  84 NW8       29.96R HX  82
CHARLES CITY * CLOUDY    77  70  78 NW5       29.99R
CLINTON *      SUNNY     82  71  69 W8        29.96R HX  86
DECORAH *      PTSUNNY   77  70  78 NW7       29.95S
DUBUQUE        MOSUNNY   81  71  71 W9        29.96R HX  85
MONTICELLO *   CLOUDY    81  73  78 W8G15     29.95R HX  85
OELWEIN *      CLOUDY    77  72  83 W8        29.98S
WATERLOO       CLOUDY    76  71  85 W7        29.97R
$$

IAZ064-065-067-068-078-250000-
   EAST CENTRAL IOWA

CITY           SKY/WX    TMP DP  RH WIND       PRES   REMARKS
DAVENPORT      CLOUDY    83  70  64 SW9       29.97R HX  87
IOWA CITY      PTSUNNY   82  71  69 SW6       29.97S HX  86
MT. PLEASANT * CLOUDY    84  76  76 S3        29.97F HX  93
MUSCATINE *    CLOUDY    84  72  65 SW7       29.96F HX  89
QUAD CITIES    CLOUDY    84  71  65 SW6       29.95S HX  89
$$

IAZ062-063-075>077-085>089-095>099-250000-
   SOUTHEAST IOWA

CITY           SKY/WX    TMP DP  RH WIND       PRES   REMARKS
BURLINGTON     CLOUDY    82  75  79 W3        29.97F HX  89
FAIRFIELD *    CLOUDY    81  75  83 CALM      29.96F HX  86
FORT MADISON *   N/A     81  75  83 SW3       29.98F HX  86
KEOKUK *       PTSUNNY   82  75  78 SW6       29.96F HX  89
OSKALOOSA *      N/A     80  73  79 CALM      29.96F HX  84
CENTERVILLE *    N/A     79  75  89 CALM      29.99R HX  82
OTTUMWA        MOSUNNY   81  72  74 CALM      29.94F HX  85
WASHINGTON *   CLOUDY    82  75  78 W5        29.98F HX  89
$$

ABBREVIATIONS USED IN REMARKS
   TC - TEMPERATURES IN CELSIUS
  WCI - WIND CHILL INDEX
   HX - HEAT INDEX
  VSB - VISIBILITY
$$





USA.gov is the U.S. government's official web portal to all federal, state and local government web resources and services.